STARLINK-33547 (62283 NORAD) Tracking and Keplerian Element Data

This shows tracking and keplerian element data for the satellite.

Feedback or suggestion? Click here.




ElementValue
Catalog62283
NameSTARLINK-33547
Epoch Orbit1019
Epoch Day35.14021084
Epoch Year2025
RAAN311.0838
Inclination43.0006
Eccentricity0.0001851
Argument of Perigee259.5377
Mean Anonmoly100.5271
Mean Motion15.40689041
Decay Rate1.47E-06
L11 62283U 24237S 25035.14021084 .00000147 00000+0 10800-4 0 9998
L22 62283 43.0006 311.0838 0001851 259.5377 100.5271 15.40689041 10198



Live tracking and technical data element details for STARLINK-33547 (NORAD 62283). STARLINK-33547 can be tracked NOW for your location showing map with azimuth and elevation plus other details from your city location.







IsCatalogInMostPopularTable: catalog: 62283, numindb: 13
Update: records affected: 1



GetName: 62283 STARLINK-33547

Hit Count: updated at: Sun, 18 May 2025 22:06:40 GMT